When you browse on this site, cookies collect data to enhance your experience and personalize the content and advertising you see.
Visit our Privacy Policy to learn more. By continuing to use the site, you agree to this use of cookies and data.
  • In Hungary
  • List of Countries
  • For 7 days
  • Water Temperature
  • Satellite Maps
  • Weather Map
  • News
  • Weather Widgets
  • user-avatar
    Login

    Hourly Weather Aleksandrovka

    Today, 18 November, Sunday

    Time Temperature Precipitation Wind Pressure Humidity
    00:00 -2°C° 0 mm 2 mps 761 mmHg 54%
    01:00 -2°C° 0 mm 2 mps 761 mmHg 55%
    02:00 -3°C° 0 mm 2 mps 761 mmHg 56%
    03:00 -1°C° 0 mm 1 mps 760 mmHg 57%
    04:00 -1°C° 0 mm 1 mps 760 mmHg 57%
    05:00 -1°C° 0 mm 1 mps 759 mmHg 58%
    06:00 -1°C° 0 mm 1 mps 759 mmHg 58%
    07:00 -1°C° 0 mm 1 mps 759 mmHg 57%
    08:00 -1°C° 0 mm 1 mps 758 mmHg 57%
    09:00 0°C° 0 mm 1 mps 758 mmHg 53%
    10:00 +1°C° 0 mm 1 mps 758 mmHg 48%
    11:00 +3°C° 0 mm 1 mps 757 mmHg 44%
    12:00 +3°C° 0 mm 1 mps 757 mmHg 43%
    13:00 +3°C° 0 mm 1 mps 757 mmHg 42%
    14:00 +4°C° 0 mm 1 mps 756 mmHg 42%
    15:00 +3°C° 0 mm 1 mps 756 mmHg 46%
    16:00 +2°C° 0 mm 1 mps 756 mmHg 50%
    17:00 0°C° 0 mm 1 mps 755 mmHg 55%
    18:00 0°C° 0 mm 1 mps 755 mmHg 55%
    19:00 -1°C° 0 mm 0 mps 755 mmHg 56%
    20:00 -1°C° 0 mm 0 mps 755 mmHg 56%
    21:00 0°C° 0 mm 1 mps 755 mmHg 56%
    22:00 0°C° 0 mm 1 mps 755 mmHg 56%
    23:00 0°C° 0 mm 1 mps 755 mmHg 56%

    Tomorrow, 19 November, Monday

    Time Temperature Precipitation Wind Pressure Humidity
    00:00 0°C° 0 mm 1 mps 755 mmHg 55%
    01:00 0°C° 0 mm 1 mps 755 mmHg 55%
    02:00 0°C° 0 mm 1 mps 755 mmHg 55%
    03:00 -2°C° 0 mm 2 mps 755 mmHg 54%
    04:00 -2°C° 0 mm 2 mps 755 mmHg 54%
    05:00 -3°C° 0 mm 2 mps 754 mmHg 53%
    06:00 -2°C° 0 mm 2 mps 754 mmHg 52%
    07:00 -2°C° 0 mm 3 mps 754 mmHg 51%
    08:00 -2°C° 0 mm 3 mps 754 mmHg 49%
    09:00 -1°C° 0 mm 3 mps 754 mmHg 48%
    10:00 -1°C° 0 mm 4 mps 754 mmHg 46%
    11:00 0°C° 0 mm 4 mps 754 mmHg 44%
    12:00 0°C° 0 mm 4 mps 754 mmHg 47%
    13:00 0°C° 0 mm 4 mps 754 mmHg 51%
    14:00 0°C° 0 mm 5 mps 754 mmHg 54%
    15:00 0°C° 0 mm 5 mps 753 mmHg 59%
    16:00 -1°C° 0 mm 5 mps 753 mmHg 63%
    17:00 -2°C° 0 mm 6 mps 753 mmHg 67%
    18:00 -2°C° 0.3 mm 6 mps 753 mmHg 72%
    19:00 -1°C° 0.3 mm 5 mps 752 mmHg 77%
    20:00 -2°C° 0.3 mm 5 mps 752 mmHg 82%
    21:00 -3°C° 0.9 mm 6 mps 752 mmHg 85%
    22:00 -3°C° 0.9 mm 6 mps 752 mmHg 88%
    23:00 -3°C° 0.9 mm 7 mps 751 mmHg 91%

    Day after tomorrow, 20 November, Tuesday

    Time Temperature Precipitation Wind Pressure Humidity
    00:00 -3°C° 0.7 mm 7 mps 751 mmHg 92%
    01:00 -3°C° 0.7 mm 7 mps 751 mmHg 92%
    02:00 -3°C° 0.7 mm 7 mps 751 mmHg 92%
    03:00 -3°C° 0.8 mm 7 mps 751 mmHg 93%
    04:00 -3°C° 0.8 mm 7 mps 751 mmHg 93%
    05:00 -3°C° 0.8 mm 7 mps 751 mmHg 93%
    06:00 -3°C° 0.1 mm 6 mps 751 mmHg 92%
    07:00 -3°C° 0.1 mm 6 mps 752 mmHg 92%
    08:00 -3°C° 0.1 mm 6 mps 752 mmHg 92%
    09:00 -3°C° 0.1 mm 6 mps 753 mmHg 93%
    10:00 -2°C° 0.1 mm 5 mps 753 mmHg 93%
    11:00 -1°C° 0.1 mm 4 mps 754 mmHg 94%
    12:00 -1°C° 0 mm 4 mps 754 mmHg 93%
    13:00 -1°C° 0 mm 4 mps 754 mmHg 93%
    14:00 -1°C° 0 mm 4 mps 754 mmHg 92%
    15:00 -2°C° 0 mm 4 mps 754 mmHg 91%
    16:00 -2°C° 0 mm 4 mps 754 mmHg 89%
    17:00 -2°C° 0 mm 4 mps 754 mmHg 88%
    18:00 -1°C° 0 mm 3 mps 754 mmHg 88%
    19:00 -2°C° 0 mm 3 mps 755 mmHg 88%
    20:00 -2°C° 0 mm 2 mps 755 mmHg 89%
    21:00 -2°C° 0 mm 2 mps 755 mmHg 89%
    22:00 -2°C° 0 mm 2 mps 755 mmHg 89%
    23:00 -2°C° 0 mm 2 mps 755 mmHg 90%

    21 November, Wednesday

    Time Temperature Precipitation Wind Pressure Humidity
    00:00 -2°C° 0 mm 2 mps 755 mmHg 90%
    01:00 -3°C° 0 mm 2 mps 755 mmHg 91%
    02:00 -4°C° 0 mm 3 mps 755 mmHg 91%
    03:00 -4°C° 0 mm 3 mps 755 mmHg 91%
    04:00 -5°C° 0 mm 3 mps 754 mmHg 91%
    05:00 -5°C° 0 mm 3 mps 754 mmHg 91%
    06:00 -5°C° 0 mm 3 mps 754 mmHg 90%
    07:00 -5°C° 0 mm 3 mps 755 mmHg 89%
    08:00 -5°C° 0 mm 3 mps 755 mmHg 88%
    09:00 -4°C° 0 mm 3 mps 755 mmHg 87%
    10:00 -2°C° 0 mm 3 mps 755 mmHg 85%
    11:00 -2°C° 0 mm 3 mps 755 mmHg 84%
    12:00 -1°C° 0 mm 3 mps 755 mmHg 84%
    13:00 -1°C° 0 mm 3 mps 754 mmHg 85%
    14:00 -2°C° 0 mm 4 mps 754 mmHg 85%
    15:00 -2°C° 0 mm 4 mps 754 mmHg 86%
    16:00 -3°C° 0 mm 4 mps 754 mmHg 88%
    17:00 -3°C° 0 mm 4 mps 754 mmHg 89%
    18:00 -3°C° 0 mm 4 mps 754 mmHg 89%
    19:00 -3°C° 0 mm 4 mps 755 mmHg 89%
    20:00 -3°C° 0 mm 4 mps 755 mmHg 89%
    21:00 -4°C° 0 mm 4 mps 755 mmHg 89%
    22:00 -4°C° 0 mm 4 mps 755 mmHg 90%
    23:00 -4°C° 0 mm 3 mps 755 mmHg 90%

    22 November, Thursday

    Time Temperature Precipitation Wind Pressure Humidity
    00:00 -4°C° 0 mm 4 mps 755 mmHg 90%
    01:00 -5°C° 0 mm 4 mps 755 mmHg 90%
    02:00 -5°C° 0 mm 4 mps 755 mmHg 90%
    03:00 -5°C° 0 mm 4 mps 755 mmHg 90%
    04:00 -5°C° 0 mm 4 mps 755 mmHg 90%
    05:00 -5°C° 0 mm 4 mps 755 mmHg 90%
    06:00 -5°C° 0 mm 4 mps 756 mmHg 89%
    07:00 -5°C° 0 mm 4 mps 756 mmHg 89%
    08:00 -5°C° 0 mm 4 mps 756 mmHg 88%
    09:00 -5°C° 0 mm 4 mps 756 mmHg 86%
    10:00 -4°C° 0 mm 4 mps 757 mmHg 83%
    11:00 -3°C° 0 mm 4 mps 757 mmHg 81%
    12:00 -3°C° 0 mm 4 mps 757 mmHg 80%
    13:00 -3°C° 0 mm 4 mps 757 mmHg 80%
    14:00 -2°C° 0 mm 4 mps 757 mmHg 80%
    15:00 -2°C° 0 mm 3 mps 757 mmHg 82%
    16:00 -4°C° 0 mm 3 mps 757 mmHg 84%
    17:00 -5°C° 0 mm 3 mps 757 mmHg 86%
    18:00 -5°C° 0 mm 3 mps 758 mmHg 87%
    19:00 -5°C° 0 mm 3 mps 758 mmHg 87%
    20:00 -5°C° 0 mm 3 mps 758 mmHg 87%
    21:00 -6°C° 0 mm 3 mps 759 mmHg 88%
    22:00 -6°C° 0 mm 3 mps 759 mmHg 88%
    23:00 -6°C° 0 mm 3 mps 759 mmHg 88%

    23 November, Friday

    Time Temperature Precipitation Wind Pressure Humidity
    00:00 -6°C° 0 mm 3 mps 759 mmHg 88%
    01:00 -6°C° 0 mm 3 mps 759 mmHg 89%
    02:00 -6°C° 0 mm 3 mps 759 mmHg 89%
    03:00 -6°C° 0 mm 3 mps 759 mmHg 90%
    04:00 -6°C° 0 mm 3 mps 759 mmHg 90%
    05:00 -6°C° 0 mm 3 mps 759 mmHg 91%
    06:00 -6°C° 0 mm 3 mps 759 mmHg 91%
    07:00 -5°C° 0 mm 2 mps 760 mmHg 91%
    08:00 -5°C° 0 mm 2 mps 760 mmHg 91%
    09:00 -4°C° 0 mm 2 mps 760 mmHg 89%
    10:00 -3°C° 0 mm 2 mps 760 mmHg 87%
    11:00 -2°C° 0 mm 3 mps 760 mmHg 85%
    12:00 -2°C° 0 mm 2 mps 760 mmHg 84%
    13:00 -2°C° 0 mm 2 mps 760 mmHg 83%
    14:00 -2°C° 0 mm 2 mps 759 mmHg 83%
    15:00 -2°C° 0 mm 2 mps 759 mmHg 85%
    16:00 -3°C° 0 mm 2 mps 759 mmHg 86%
    17:00 -2°C° 0 mm 1 mps 759 mmHg 88%
    18:00 -2°C° 0 mm 1 mps 759 mmHg 89%
    19:00 -3°C° 0 mm 1 mps 759 mmHg 89%
    20:00 -3°C° 0 mm 1 mps 759 mmHg 89%
    21:00 -3°C° 0 mm 1 mps 759 mmHg 89%
    22:00 -4°C° 0 mm 0 mps 759 mmHg 89%
    23:00 -4°C° 0 mm 0 mps 759 mmHg 89%
    Show more